TimeMDT,TemperatureF,Dew PointF,Humidity,Sea Level PressureIn,VisibilityMPH,Wind Direction,Wind SpeedMPH,Gust SpeedMPH,PrecipitationIn,Events,Conditions,WindDirDegrees,DateUTC
2:35 AM,59.2,46.6,63,30.40,10.0,West,3.5,-,N/A,,Clear,280,2013-08-28 08:35:00
2:55 AM,59.9,46.6,61,30.41,10.0,West,3.5,-,N/A,,Clear,270,2013-08-28 08:55:00
3:15 AM,59.2,46.6,63,30.40,10.0,West,4.6,-,N/A,,Clear,260,2013-08-28 09:15:00
3:35 AM,57.6,46.4,66,30.41,10.0,WSW,8.1,-,N/A,,Clear,250,2013-08-28 09:35:00
3:55 AM,57.4,46.4,67,30.41,10.0,West,5.8,-,N/A,,Clear,280,2013-08-28 09:55:00
4:15 AM,56.8,46.4,68,30.40,10.0,WSW,5.8,-,N/A,,Clear,250,2013-08-28 10:15:00
4:35 AM,56.8,46.0,67,30.40,10.0,WNW,4.6,-,N/A,,Clear,300,2013-08-28 10:35:00
4:55 AM,59.2,46.6,63,30.40,10.0,WNW,4.6,-,N/A,,Clear,290,2013-08-28 10:55:00
5:15 AM,59.9,46.4,61,30.40,10.0,NW,4.6,-,N/A,,Clear,310,2013-08-28 11:15:00
5:55 AM,56.8,46.2,68,30.41,10.0,West,5.8,-,N/A,,Clear,280,2013-08-28 11:55:00
6:15 AM,57.2,46.4,67,30.42,10.0,West,5.8,-,N/A,,Clear,280,2013-08-28 12:15:00
6:35 AM,58.1,46.4,65,30.43,10.0,West,5.8,-,N/A,,Clear,280,2013-08-28 12:35:00
6:55 AM,58.3,46.4,65,30.43,10.0,West,4.6,-,N/A,,Clear,280,2013-08-28 12:55:00
7:55 AM,61.0,46.9,60,30.44,10.0,Calm,Calm,-,N/A,,Clear,0,2013-08-28 13:55:00
8:15 AM,62.4,46.8,57,30.44,10.0,North,3.5,-,N/A,,Clear,10,2013-08-28 14:15:00
8:35 AM,63.5,47.5,56,30.44,10.0,North,3.5,-,N/A,,Clear,10,2013-08-28 14:35:00
8:55 AM,64.6,47.3,53,30.44,10.0,Calm,Calm,-,N/A,,Clear,0,2013-08-28 14:55:00
9:15 AM,67.1,46.8,48,30.44,10.0,Calm,Calm,-,N/A,,Clear,0,2013-08-28 15:15:00
9:35 AM,69.1,46.6,45,30.44,10.0,Calm,Calm,-,N/A,,Clear,0,2013-08-28 15:35:00
9:55 AM,71.1,46.4,41,30.44,10.0,Calm,Calm,-,N/A,,Clear,0,2013-08-28 15:55:00
10:15 AM,73.0,46.6,39,30.43,10.0,NNE,3.5,-,N/A,,Clear,30,2013-08-28 16:15:00
10:35 AM,74.5,45.7,36,30.43,10.0,Calm,Calm,-,N/A,,Clear,0,2013-08-28 16:35:00
10:55 AM,76.3,44.8,33,30.42,10.0,Calm,Calm,-,N/A,,Clear,0,2013-08-28 16:55:00
11:15 AM,79.2,45.3,30,30.42,10.0,Calm,Calm,-,N/A,,Clear,0,2013-08-28 17:15:00
11:35 AM,80.1,45.3,29,30.41,10.0,Calm,Calm,-,N/A,,Clear,0,2013-08-28 17:35:00
11:55 AM,81.1,45.1,28,30.40,10.0,Calm,Calm,-,N/A,,Clear,0,2013-08-28 17:55:00
12:15 PM,83.3,44.2,25,30.40,10.0,NNE,3.5,-,N/A,,Clear,20,2013-08-28 18:15:00
12:35 PM,83.7,39.7,21,30.39,10.0,ENE,5.8,-,N/A,,Clear,70,2013-08-28 18:35:00
12:55 PM,84.2,37.4,19,30.38,10.0,North,8.1,-,N/A,,Clear,10,2013-08-28 18:55:00
1:15 PM,86.9,37.2,17,30.37,10.0,North,5.8,-,N/A,,Clear,360,2013-08-28 19:15:00
1:35 PM,85.5,36.9,18,30.37,10.0,Calm,Calm,-,N/A,,Clear,0,2013-08-28 19:35:00
1:55 PM,88.2,35.4,15,30.36,10.0,East,4.6,-,N/A,,Clear,100,2013-08-28 19:55:00
2:15 PM,87.3,36.9,17,30.35,10.0,East,12.7,17.3,N/A,,Clear,90,2013-08-28 20:15:00
2:35 PM,88.5,36.5,16,30.35,10.0,East,10.4,-,N/A,,Clear,90,2013-08-28 20:35:00
2:55 PM,87.8,33.8,15,30.34,10.0,Calm,Calm,-,N/A,,Clear,0,2013-08-28 20:55:00
3:15 PM,88.3,31.1,13,30.33,10.0,Calm,Calm,-,N/A,,Clear,0,2013-08-28 21:15:00
3:35 PM,87.3,31.3,13,30.33,10.0,SSE,4.6,-,N/A,,Clear,160,2013-08-28 21:35:00
3:55 PM,87.8,32.4,14,30.32,10.0,SE,8.1,-,N/A,,Clear,140,2013-08-28 21:55:00
4:15 PM,87.8,35.1,15,30.33,10.0,SE,5.8,-,N/A,,Scattered Clouds,140,2013-08-28 22:15:00
4:35 PM,86.2,31.5,14,30.32,10.0,ESE,3.5,-,N/A,,Overcast,110,2013-08-28 22:35:00
4:55 PM,85.8,36.0,17,30.32,10.0,South,4.6,-,N/A,,Overcast,170,2013-08-28 22:55:00
5:15 PM,84.7,36.7,18,30.32,10.0,West,4.6,-,N/A,,Scattered Clouds,270,2013-08-28 23:15:00
5:35 PM,86.2,32.7,15,30.33,10.0,Calm,Calm,-,N/A,,Clear,0,2013-08-28 23:35:00
5:55 PM,86.9,30.6,13,30.33,10.0,ENE,3.5,-,N/A,,Clear,70,2013-08-28 23:55:00
6:15 PM,85.1,30.6,14,30.34,10.0,SE,13.8,19.6,N/A,,Scattered Clouds,130,2013-08-29 00:15:00
6:35 PM,81.7,35.4,19,30.35,10.0,SSW,10.4,-,N/A,,Mostly Cloudy,210,2013-08-29 00:35:00
6:55 PM,77.4,38.1,24,30.37,10.0,South,10.4,20.7,N/A,,Mostly Cloudy,180,2013-08-29 00:55:00
7:15 PM,77.5,37.0,23,30.38,10.0,SW,21.9,27.6,N/A,,Clear,220,2013-08-29 01:15:00
7:35 PM,75.6,38.5,26,30.38,10.0,SSW,12.7,25.3,N/A,,Clear,210,2013-08-29 01:35:00
7:55 PM,76.1,37.0,24,30.39,10.0,ESE,3.5,-,N/A,,Clear,120,2013-08-29 01:55:00
8:15 PM,76.6,38.3,25,30.40,10.0,North,3.5,-,N/A,,Clear,350,2013-08-29 02:15:00
8:35 PM,75.2,39.0,27,30.41,10.0,NW,5.8,-,N/A,,Clear,320,2013-08-29 02:35:00
8:55 PM,75.2,38.3,26,30.43,10.0,NNW,3.5,-,N/A,,Clear,330,2013-08-29 02:55:00
9:15 PM,72.0,41.2,33,30.44,10.0,NW,4.6,-,N/A,,Scattered Clouds,310,2013-08-29 03:15:00
9:35 PM,73.4,41.0,31,30.45,10.0,NW,6.9,-,N/A,,Scattered Clouds,320,2013-08-29 03:35:00
9:55 PM,71.1,43.9,38,30.45,10.0,NW,8.1,-,N/A,,Mostly Cloudy,310,2013-08-29 03:55:00
10:15 PM,70.0,44.1,39,30.45,10.0,West,5.8,-,N/A,,Scattered Clouds,280,2013-08-29 04:15:00
10:35 PM,68.7,44.1,41,30.45,10.0,West,4.6,-,N/A,,Clear,260,2013-08-29 04:35:00
10:55 PM,67.3,44.2,43,30.46,10.0,West,9.2,-,N/A,,Clear,260,2013-08-29 04:55:00
11:15 PM,67.5,43.7,42,30.46,10.0,West,8.1,-,N/A,,Clear,280,2013-08-29 05:15:00
11:35 PM,66.6,43.9,44,30.46,10.0,West,10.4,-,N/A,,Clear,280,2013-08-29 05:35:00
11:55 PM,66.7,42.6,42,30.47,10.0,West,8.1,-,N/A,,Clear,270,2013-08-29 05:55:00